Weather in Lázaro Cárdenas

Mexico     17°57′06″N   102°11′37″W
В апреле 2022 года жителям России запретили посещать сайт meteo.paraplan.net по решению Генеральной прокуратуры. Аудитория сайта уменьшилась в 10 раз. Владельцы сайта не видят смысла в поддержке погодного сервера в таких условиях. Сайт будет закрыт в октябре.
temp.,
°C
wind,
m/s
gust,
m/s
humid.,
%
clouds,
%
prec.,
mm/h
press.,
hPa
HPBL,
m
30 september, fri
fri3001:00+24n228850 0.1 101295
04:00+24nne228771 0.0 101191
07:00+24nne228896 0.0 101183
10:00+26nne22818 0.0 1011230
13:00+29ssw216970 0.0 1010775
16:00+28sw447733 0.1 1008677
19:00+27wsw248310 0.5 1008359
22:00+26w238545 0.1 1010297
1 october, sat
sat101:00+24n229071 0.5 101052
04:00+24ne239289 0.5 100893
07:00+24ne229166 0.9 100989
10:00+26ne228579 1.7 1011146
13:00+27sse1180100 6.5 1011277
16:00+27wsw228399 6.3 1008341
19:00+26w128489 11.0 1009188
22:00+24nnw118788 1.2 101151
2 october, sun
sun201:00+23nne229199 2.4 101188
04:00+23nne2290100 0.8 101092
07:00+23nne2291100 1.7 101183
10:00+23nne239199 2.5 1013113
13:00+26se118276 3.7 1013241
16:00+27wsw117971 1.1 1011412
19:00+26wnw118598 4.8 101185
22:00+24nw228789 1.1 1013212
3 october, mon
mon301:00+23n2290100 2.1 101494
04:00+23nne228999 0.6 101287
07:00+23n2288100 1.1 1012107
10:00+25nnw228687 0.7 1015188
13:00+26w018283 1.9 1014294
16:00+27ssw117683 1.9 1011502
19:00+26w118395 3.9 1012175
22:00+25nne2288100 0.1 101391
4 october, tue
tue401:00+24nne229196 2.1 101388
04:00+23ne239241 0.4 101196
07:00+23ne239126 1.2 101291
10:00+25ene22845 0.3 1014216
13:00+28sse227717 0.9 1013699
16:00+27sw238110 2.9 1011567
19:00+26w12846 5.0 1011236
22:00+24n11875 0.1 1013166